| time (UTC) | temp F | wind direction | speed MPH | gust MPH | rain 1hr in | rain 24hr in | rain mn in | humidity % | barometer mb |
| 20260507003706 | 67 | 165 | 1.0 | 3.0 | 0.00 | 0.02 | 0.02 | 75 | 1004.4 |
| 20260507003206 | 67 | 148 | 2.0 | 5.0 | 0.00 | 0.02 | 0.02 | 75 | 1004.3 |
| 20260507002706 | 67 | 149 | 2.0 | 7.0 | 0.00 | 0.02 | 0.02 | 75 | 1004.1 |
| 20260507001706 | 68 | 170 | 3.0 | 8.0 | 0.00 | 0.02 | 0.02 | 76 | 1004.2 |
| 20260507001206 | 67 | 156 | 2.0 | 7.0 | 0.00 | 0.02 | 0.02 | 76 | 1004.3 |
| 20260507000706 | 67 | 195 | 3.0 | 7.0 | 0.00 | 0.02 | 0.02 | 75 | 1004.4 |
| 20260507000206 | 67 | 163 | 3.0 | 9.0 | 0.00 | 0.02 | 0.02 | 75 | 1004.3 |
| 20260506235706 | 67 | 205 | 3.0 | 9.0 | 0.00 | 0.02 | 0.02 | 75 | 1004.2 |
| 20260506235206 | 67 | 178 | 2.0 | 8.0 | 0.00 | 0.02 | 0.02 | 75 | 1004.3 |
| 20260506234706 | 67 | 191 | 3.0 | 12.0 | 0.00 | 0.02 | 0.02 | 75 | 1004.3 |
| 20260506234205 | 67 | 131 | 2.0 | 12.0 | 0.00 | 0.02 | 0.02 | 75 | 1004.1 |
| 20260506233706 | 67 | 198 | 2.0 | 8.0 | 0.00 | 0.02 | 0.02 | 75 | 1004.0 |
| 20260506233206 | 68 | 196 | 2.0 | 8.0 | 0.00 | 0.02 | 0.02 | 75 | 1003.9 |
| 20260506232707 | 68 | 177 | 3.0 | 8.0 | 0.00 | 0.02 | 0.02 | 75 | 1003.9 |
| 20260506232206 | 67 | 188 | 2.0 | 8.0 | 0.00 | 0.02 | 0.02 | 75 | 1004.0 |
| 20260506231706 | 67 | 248 | 4.0 | 10.0 | 0.00 | 0.02 | 0.02 | 75 | 1004.2 |
| 20260506231208 | 67 | 212 | 2.0 | 12.0 | 0.00 | 0.02 | 0.02 | 75 | 1004.1 |
| 20260506230706 | 67 | 199 | 3.0 | 12.0 | 0.00 | 0.02 | 0.02 | 75 | 1004.0 |
| 20260506230206 | 67 | 199 | 3.0 | 12.0 | 0.00 | 0.02 | 0.02 | 75 | 1004.0 |
| 20260506225706 | 67 | 201 | 5.0 | 12.0 | 0.00 | 0.02 | 0.02 | 75 | 1004.1 |
| 20260506225206 | 67 | 196 | 4.0 | 16.0 | 0.00 | 0.02 | 0.02 | 75 | 1004.0 |
| 20260506224706 | 67 | 185 | 5.0 | 16.0 | 0.00 | 0.02 | 0.02 | 75 | 1003.9 |
| 20260506224206 | 67 | 211 | 4.0 | 16.0 | 0.00 | 0.02 | 0.02 | 75 | 1003.8 |
| 20260506223707 | 67 | 185 | 5.0 | 17.0 | 0.00 | 0.02 | 0.02 | 76 | 1003.9 |
| 20260506223205 | 67 | 216 | 5.0 | 17.0 | 0.00 | 0.02 | 0.02 | 76 | 1003.8 |
| 20260506222706 | 67 | 228 | 5.0 | 10.0 | 0.00 | 0.02 | 0.02 | 76 | 1003.7 |
| 20260506221705 | 67 | 200 | 5.0 | 12.0 | 0.00 | 0.02 | 0.02 | 76 | 1003.8 |
| 20260506221205 | 67 | 236 | 5.0 | 12.0 | 0.00 | 0.02 | 0.02 | 76 | 1003.7 |
| 20260506220707 | 67 | 231 | 2.0 | 13.0 | 0.00 | 0.02 | 0.02 | 77 | 1003.7 |
| 20260506220207 | 67 | 189 | 5.0 | 13.0 | 0.00 | 0.02 | 0.02 | 77 | 1003.7 |
| 20260506215206 | 67 | 245 | 3.0 | 14.0 | 0.00 | 0.02 | 0.02 | 77 | 1003.7 |
| 20260506214706 | 66 | 201 | 3.0 | 13.0 | 0.00 | 0.02 | 0.02 | 77 | 1003.7 |
| 20260506213707 | 66 | 193 | 3.0 | 10.0 | 0.00 | 0.02 | 0.02 | 78 | 1003.5 |
| 20260506213205 | 66 | 114 | 4.0 | 9.0 | 0.00 | 0.02 | 0.02 | 78 | 1003.4 |
| 20260506212706 | 66 | 208 | 5.0 | 9.0 | 0.00 | 0.02 | 0.02 | 79 | 1003.4 |
| 20260506212206 | 66 | 235 | 3.0 | 9.0 | 0.00 | 0.02 | 0.02 | 79 | 1003.4 |
| 20260506211707 | 66 | 177 | 5.0 | 9.0 | 0.00 | 0.02 | 0.02 | 79 | 1003.4 |
| 20260506211206 | 66 | 195 | 2.0 | 9.0 | 0.00 | 0.02 | 0.02 | 80 | 1003.4 |
| 20260506210706 | 66 | 203 | 3.0 | 12.0 | 0.00 | 0.02 | 0.02 | 80 | 1003.4 |
| 20260506210206 | 65 | 217 | 4.0 | 12.0 | 0.00 | 0.02 | 0.02 | 81 | 1003.4 |
| 20260506205706 | 65 | 234 | 3.0 | 10.0 | 0.00 | 0.02 | 0.02 | 81 | 1003.3 |
| 20260506204707 | 65 | 172 | 4.0 | 10.0 | 0.00 | 0.02 | 0.02 | 82 | 1003.3 |
| 20260506203706 | 65 | 194 | 3.0 | 9.0 | 0.00 | 0.02 | 0.02 | 83 | 1003.2 |
| 20260506203206 | 65 | 171 | 3.0 | 9.0 | 0.00 | 0.02 | 0.02 | 83 | 1003.2 |
| 20260506202706 | 65 | 154 | 4.0 | 8.0 | 0.00 | 0.02 | 0.02 | 83 | 1003.3 |
| 20260506202206 | 65 | 196 | 3.0 | 8.0 | 0.00 | 0.02 | 0.02 | 83 | 1003.4 |
| 20260506201705 | 65 | 171 | 4.0 | 8.0 | 0.00 | 0.02 | 0.02 | 84 | 1003.4 |
| 20260506200706 | 64 | 167 | 3.0 | 10.0 | 0.00 | 0.02 | 0.02 | 84 | 1003.5 |
| 20260506195706 | 64 | 213 | 3.0 | 8.0 | 0.00 | 0.02 | 0.02 | 83 | 1003.7 |
| 20260506194705 | 64 | 184 | 3.0 | 8.0 | 0.00 | 0.02 | 0.02 | 83 | 1003.9 |
| 20260506194205 | 64 | 221 | 3.0 | 12.0 | 0.00 | 0.02 | 0.02 | 83 | 1003.8 |
| 20260506193706 | 64 | 195 | 4.0 | 12.0 | 0.00 | 0.02 | 0.02 | 82 | 1003.9 |
| 20260506193206 | 64 | 166 | 3.0 | 13.0 | 0.00 | 0.02 | 0.02 | 82 | 1004.1 |
| 20260506192705 | 65 | 201 | 3.0 | 14.0 | 0.00 | 0.02 | 0.02 | 81 | 1004.1 |
| 20260506192206 | 65 | 189 | 6.0 | 14.0 | 0.00 | 0.02 | 0.02 | 80 | 1004.1 |
| 20260506191706 | 65 | 165 | 3.0 | 12.0 | 0.00 | 0.02 | 0.02 | 79 | 1004.1 |
| 20260506191205 | 65 | 177 | 5.0 | 14.0 | 0.00 | 0.02 | 0.02 | 79 | 1004.1 |
| 20260506185706 | 66 | 181 | 7.0 | 16.0 | 0.00 | 0.02 | 0.02 | 75 | 1004.2 |
| 20260506185206 | 66 | 173 | 7.0 | 14.0 | 0.00 | 0.02 | 0.02 | 72 | 1004.2 |
| 20260506184706 | 67 | 166 | 7.0 | 13.0 | 0.00 | 0.02 | 0.02 | 72 | 1004.0 |
| 20260506183706 | 67 | 157 | 5.0 | 10.0 | 0.01 | 0.02 | 0.02 | 71 | 1003.9 |
| 20260506182706 | 67 | 144 | 5.0 | 10.0 | 0.01 | 0.02 | 0.02 | 72 | 1003.9 |
| 20260506182206 | 67 | 140 | 6.0 | 10.0 | 0.01 | 0.02 | 0.02 | 71 | 1004.0 |
| 20260506181705 | 68 | 155 | 5.0 | 9.0 | 0.01 | 0.02 | 0.02 | 72 | 1004.0 |
| 20260506181206 | 68 | 149 | 3.0 | 7.0 | 0.01 | 0.02 | 0.02 | 73 | 1004.3 |
| 20260506175705 | 68 | 159 | 2.0 | 8.0 | 0.01 | 0.02 | 0.02 | 74 | 1004.4 |
| 20260506174706 | 67 | 159 | 3.0 | 9.0 | 0.01 | 0.02 | 0.02 | 75 | 1004.4 |
| 20260506173705 | 67 | 156 | 5.0 | 10.0 | 0.01 | 0.01 | 0.01 | 74 | 1004.3 |
| 20260506173206 | 67 | 172 | 4.0 | 18.0 | 0.01 | 0.01 | 0.01 | 75 | 1004.3 |
| 20260506172705 | 66 | 207 | 2.0 | 18.0 | 0.01 | 0.01 | 0.01 | 74 | 1004.4 |
| 20260506172206 | 66 | 167 | 6.0 | 15.0 | 0.01 | 0.01 | 0.01 | 74 | 1004.4 |
| 20260506171705 | 67 | 165 | 7.0 | 15.0 | 0.01 | 0.01 | 0.01 | 73 | 1004.4 |
| 20260506171205 | 67 | 144 | 5.0 | 14.0 | 0.01 | 0.01 | 0.01 | 73 | 1004.7 |
| 20260506170705 | 67 | 179 | 5.0 | 13.0 | 0.01 | 0.01 | 0.01 | 73 | 1005.0 |
| 20260506170205 | 67 | 183 | 6.0 | 13.0 | 0.01 | 0.01 | 0.01 | 72 | 1005.2 |
| 20260506165205 | 68 | 176 | 7.0 | 20.0 | 0.01 | 0.01 | 0.01 | 70 | 1005.6 |
| 20260506164705 | 68 | 178 | 6.0 | 14.0 | 0.01 | 0.01 | 0.01 | 69 | 1005.5 |
| 20260506163705 | 69 | 162 | 4.0 | 13.0 | 0.00 | 0.00 | 0.00 | 67 | 1005.3 |
| 20260506163205 | 69 | 184 | 5.0 | 13.0 | 0.00 | 0.00 | 0.00 | 66 | 1005.4 |
| 20260506162705 | 70 | 204 | 5.0 | 12.0 | 0.00 | 0.00 | 0.00 | 64 | 1005.4 |
| 20260506161706 | 71 | 189 | 7.0 | 18.0 | 0.00 | 0.00 | 0.00 | 59 | 1005.7 |
| 20260506161205 | 71 | 185 | 6.0 | 20.0 | 0.00 | 0.00 | 0.00 | 58 | 1005.9 |
| 20260506160705 | 71 | 210 | 6.0 | 20.0 | 0.00 | 0.00 | 0.00 | 57 | 1005.8 |
| 20260506160205 | 72 | 175 | 7.0 | 20.0 | 0.00 | 0.00 | 0.00 | 56 | 1005.9 |
| 20260506155705 | 72 | 205 | 7.0 | 20.0 | 0.00 | 0.00 | 0.00 | 56 | 1005.9 |
| 20260506155205 | 73 | 184 | 5.0 | 20.0 | 0.00 | 0.00 | 0.00 | 56 | 1005.8 |
| 20260506154705 | 72 | 190 | 6.0 | 16.0 | 0.00 | 0.00 | 0.00 | 56 | 1005.7 |
| 20260506154205 | 72 | 181 | 6.0 | 16.0 | 0.00 | 0.00 | 0.00 | 57 | 1005.6 |
| 20260506153705 | 72 | 158 | 3.0 | 15.0 | 0.00 | 0.00 | 0.00 | 58 | 1005.7 |
| 20260506153205 | 71 | 196 | 5.0 | 17.0 | 0.00 | 0.00 | 0.00 | 58 | 1005.6 |
| 20260506152706 | 71 | 204 | 6.0 | 17.0 | 0.00 | 0.00 | 0.00 | 59 | 1005.7 |
| 20260506152206 | 72 | 187 | 5.0 | 17.0 | 0.00 | 0.00 | 0.00 | 58 | 1005.8 |
| 20260506150705 | 73 | 146 | 9.0 | 21.0 | 0.00 | 0.00 | 0.00 | 56 | 1005.9 |
| 20260506150205 | 73 | 198 | 7.0 | 21.0 | 0.00 | 0.00 | 0.00 | 56 | 1005.9 |
| 20260506145705 | 73 | 202 | 6.0 | 16.0 | 0.00 | 0.00 | 0.00 | 56 | 1005.9 |
| 20260506145205 | 73 | 183 | 7.0 | 15.0 | 0.00 | 0.00 | 0.00 | 56 | 1005.9 |
| 20260506144705 | 73 | 158 | 6.0 | 16.0 | 0.00 | 0.00 | 0.00 | 56 | 1005.9 |
| 20260506144205 | 73 | 111 | 6.0 | 16.0 | 0.00 | 0.00 | 0.00 | 56 | 1006.0 |
| 20260506143705 | 72 | 195 | 4.0 | 14.0 | 0.00 | 0.00 | 0.00 | 58 | 1005.8 |
| 20260506143205 | 72 | 180 | 7.0 | 16.0 | 0.00 | 0.00 | 0.00 | 58 | 1005.7 |
| 20260506142705 | 71 | 191 | 5.0 | 16.0 | 0.00 | 0.00 | 0.00 | 59 | 1005.9 |
| 20260506142205 | 71 | 187 | 7.0 | 16.0 | 0.00 | 0.00 | 0.00 | 59 | 1006.0 |
| 20260506141205 | 72 | 188 | 4.0 | 15.0 | 0.00 | 0.00 | 0.00 | 59 | 1005.8 |
| 20260506140705 | 72 | 181 | 3.0 | 15.0 | 0.00 | 0.00 | 0.00 | 59 | 1005.9 |
| 20260506140205 | 71 | 129 | 5.0 | 14.0 | 0.00 | 0.00 | 0.00 | 60 | 1005.9 |
| 20260506135705 | 71 | 185 | 5.0 | 10.0 | 0.00 | 0.00 | 0.00 | 60 | 1005.9 |
| 20260506135205 | 71 | 200 | 4.0 | 13.0 | 0.00 | 0.00 | 0.00 | 61 | 1005.9 |
| 20260506134704 | 70 | 126 | 6.0 | 16.0 | 0.00 | 0.00 | 0.00 | 62 | 1006.0 |
| 20260506134205 | 70 | 172 | 7.0 | 16.0 | 0.00 | 0.00 | 0.00 | 62 | 1006.0 |
| 20260506133705 | 70 | 175 | 7.0 | 13.0 | 0.00 | 0.00 | 0.00 | 62 | 1005.9 |
| 20260506133206 | 70 | 181 | 6.0 | 16.0 | 0.00 | 0.00 | 0.00 | 61 | 1006.0 |
| 20260506132705 | 70 | 113 | 7.0 | 16.0 | 0.00 | 0.00 | 0.00 | 62 | 1006.0 |
| 20260506132205 | 69 | 192 | 5.0 | 12.0 | 0.00 | 0.00 | 0.00 | 63 | 1006.2 |
| 20260506131705 | 69 | 144 | 6.0 | 12.0 | 0.00 | 0.00 | 0.00 | 64 | 1006.1 |
| 20260506130705 | 69 | 134 | 3.0 | 10.0 | 0.00 | 0.00 | 0.00 | 64 | 1005.9 |
| 20260506130205 | 69 | 178 | 5.0 | 12.0 | 0.00 | 0.00 | 0.00 | 65 | 1005.9 |
| 20260506125705 | 68 | 161 | 5.0 | 12.0 | 0.00 | 0.00 | 0.00 | 65 | 1005.9 |
| 20260506125205 | 68 | 142 | 5.0 | 12.0 | 0.00 | 0.00 | 0.00 | 66 | 1005.9 |
| 20260506124705 | 68 | 145 | 5.0 | 12.0 | 0.00 | 0.00 | 0.00 | 67 | 1005.9 |
| 20260506124205 | 67 | 153 | 4.0 | 12.0 | 0.00 | 0.00 | 0.00 | 67 | 1005.9 |
| 20260506123207 | 67 | 172 | 2.0 | 12.0 | 0.00 | 0.00 | 0.00 | 68 | 1006.1 |
| 20260506122705 | 67 | 167 | 2.0 | 13.0 | 0.00 | 0.00 | 0.00 | 68 | 1006.1 |
| 20260506122205 | 66 | 82 | 5.0 | 13.0 | 0.00 | 0.00 | 0.00 | 69 | 1006.1 |
| 20260506121705 | 66 | 168 | 4.0 | 9.0 | 0.00 | 0.00 | 0.00 | 69 | 1006.2 |
| 20260506121205 | 66 | 92 | 2.0 | 13.0 | 0.00 | 0.00 | 0.00 | 69 | 1006.4 |
| 20260506120205 | 66 | 146 | 2.0 | 12.0 | 0.00 | 0.00 | 0.00 | 71 | 1006.4 |
| 20260506115705 | 66 | 88 | 6.0 | 12.0 | 0.00 | 0.00 | 0.00 | 71 | 1006.5 |
| 20260506115205 | 65 | 141 | 2.0 | 10.0 | 0.00 | 0.00 | 0.00 | 71 | 1006.4 |
| 20260506114705 | 65 | 179 | 3.0 | 10.0 | 0.00 | 0.00 | 0.00 | 72 | 1006.5 |
| 20260506114205 | 65 | 109 | 3.0 | 12.0 | 0.00 | 0.00 | 0.00 | 72 | 1006.5 |
| 20260506113705 | 65 | 130 | 3.0 | 12.0 | 0.00 | 0.00 | 0.00 | 72 | 1006.5 |
| 20260506112705 | 64 | 146 | 3.0 | 8.0 | 0.00 | 0.00 | 0.00 | 73 | 1006.6 |
| 20260506112205 | 64 | 106 | 3.0 | 8.0 | 0.00 | 0.00 | 0.00 | 74 | 1006.6 |
| 20260506111205 | 64 | 168 | 5.0 | 9.0 | 0.00 | 0.00 | 0.00 | 74 | 1006.4 |
| 20260506110705 | 64 | 138 | 5.0 | 10.0 | 0.00 | 0.00 | 0.00 | 74 | 1006.4 |
| 20260506110205 | 64 | 139 | 4.0 | 10.0 | 0.00 | 0.00 | 0.00 | 75 | 1006.3 |
| 20260506105705 | 64 | 133 | 5.0 | 10.0 | 0.00 | 0.00 | 0.00 | 75 | 1006.3 |
| 20260506105204 | 64 | 132 | 2.0 | 8.0 | 0.00 | 0.00 | 0.00 | 75 | 1006.3 |
| 20260506104206 | 63 | 152 | 3.0 | 8.0 | 0.00 | 0.00 | 0.00 | 75 | 1006.5 |
| 20260506103706 | 63 | 134 | 3.0 | 9.0 | 0.00 | 0.00 | 0.00 | 76 | 1006.4 |
| 20260506103205 | 63 | 135 | 4.0 | 9.0 | 0.00 | 0.00 | 0.00 | 76 | 1006.3 |
| 20260506102205 | 63 | 158 | 4.0 | 9.0 | 0.00 | 0.00 | 0.00 | 76 | 1006.3 |
| 20260506101705 | 63 | 144 | 5.0 | 10.0 | 0.00 | 0.00 | 0.00 | 76 | 1006.3 |
| 20260506101205 | 63 | 138 | 5.0 | 12.0 | 0.00 | 0.00 | 0.00 | 76 | 1006.2 |
| 20260506100704 | 63 | 132 | 3.0 | 12.0 | 0.00 | 0.00 | 0.00 | 76 | 1006.2 |
| 20260506095204 | 63 | 151 | 3.0 | 10.0 | 0.00 | 0.00 | 0.00 | 76 | 1006.2 |
| 20260506094704 | 63 | 159 | 6.0 | 12.0 | 0.00 | 0.00 | 0.00 | 75 | 1006.2 |
| 20260506094204 | 63 | 154 | 5.0 | 12.0 | 0.00 | 0.00 | 0.00 | 76 | 1006.2 |
| 20260506093705 | 63 | 142 | 5.0 | 12.0 | 0.00 | 0.00 | 0.00 | 76 | 1006.2 |
| 20260506093205 | 63 | 153 | 4.0 | 10.0 | 0.00 | 0.00 | 0.00 | 76 | 1006.1 |
| 20260506092705 | 63 | 139 | 5.0 | 12.0 | 0.00 | 0.00 | 0.00 | 76 | 1006.2 |
| 20260506092205 | 63 | 150 | 5.0 | 12.0 | 0.00 | 0.00 | 0.00 | 75 | 1006.2 |
| 20260506091705 | 64 | 147 | 6.0 | 12.0 | 0.00 | 0.00 | 0.00 | 75 | 1006.2 |
| 20260506091205 | 64 | 96 | 5.0 | 10.0 | 0.00 | 0.00 | 0.00 | 75 | 1006.2 |
| 20260506090705 | 64 | 143 | 3.0 | 10.0 | 0.00 | 0.00 | 0.00 | 75 | 1006.3 |
| 20260506090204 | 64 | 147 | 5.0 | 10.0 | 0.00 | 0.00 | 0.00 | 75 | 1006.3 |
| 20260506085705 | 64 | 148 | 3.0 | 12.0 | 0.00 | 0.00 | 0.00 | 75 | 1006.3 |
| 20260506085205 | 64 | 145 | 5.0 | 12.0 | 0.00 | 0.00 | 0.00 | 75 | 1006.4 |
| 20260506084705 | 64 | 136 | 5.0 | 12.0 | 0.00 | 0.00 | 0.00 | 75 | 1006.4 |
| 20260506084205 | 64 | 125 | 6.0 | 12.0 | 0.00 | 0.00 | 0.00 | 75 | 1006.4 |
| 20260506083705 | 64 | 148 | 6.0 | 12.0 | 0.00 | 0.00 | 0.00 | 75 | 1006.4 |
| 20260506083205 | 64 | 148 | 6.0 | 12.0 | 0.00 | 0.00 | 0.00 | 75 | 1006.3 |
| 20260506082704 | 64 | 162 | 6.0 | 12.0 | 0.00 | 0.00 | 0.00 | 75 | 1006.4 |
| 20260506082205 | 64 | 146 | 5.0 | 12.0 | 0.00 | 0.00 | 0.00 | 75 | 1006.5 |
| 20260506081704 | 64 | 119 | 6.0 | 12.0 | 0.00 | 0.00 | 0.00 | 75 | 1006.5 |
| 20260506081204 | 64 | 141 | 4.0 | 12.0 | 0.00 | 0.00 | 0.00 | 74 | 1006.5 |
| 20260506080704 | 64 | 130 | 6.0 | 12.0 | 0.00 | 0.00 | 0.00 | 74 | 1006.5 |
| 20260506080205 | 64 | 139 | 5.0 | 12.0 | 0.00 | 0.00 | 0.00 | 74 | 1006.5 |
| 20260506073204 | 65 | 146 | 7.0 | 13.0 | 0.00 | 0.00 | 0.00 | 72 | 1006.6 |
| 20260506072705 | 65 | 169 | 6.0 | 13.0 | 0.00 | 0.00 | 0.00 | 71 | 1006.5 |
| 20260506072205 | 65 | 146 | 7.0 | 12.0 | 0.00 | 0.00 | 0.00 | 71 | 1006.6 |
| 20260506071205 | 65 | 144 | 7.0 | 13.0 | 0.00 | 0.00 | 0.00 | 70 | 1006.7 |
| 20260506070705 | 65 | 121 | 6.0 | 13.0 | 0.00 | 0.00 | 0.00 | 70 | 1006.8 |
| 20260506070205 | 65 | 142 | 5.0 | 10.0 | 0.00 | 0.00 | 0.00 | 70 | 1006.7 |
| 20260506062205 | 67 | 172 | 3.0 | 9.0 | 0.00 | 0.00 | 0.00 | 67 | 1006.7 |
| 20260506061706 | 67 | 152 | 3.0 | 12.0 | 0.00 | 0.00 | 0.00 | 67 | 1006.7 |
| 20260506060704 | 67 | 136 | 5.0 | 10.0 | 0.00 | 0.00 | 0.00 | 66 | 1006.8 |
| 20260506060204 | 67 | 148 | 6.0 | 10.0 | 0.00 | 0.00 | 0.00 | 66 | 1006.8 |
| 20260506051204 | 67 | 176 | 3.0 | 8.0 | 0.00 | 0.00 | 0.00 | 64 | 1007.3 |
| 20260506050704 | 67 | 145 | 2.0 | 6.0 | 0.00 | 0.00 | 0.00 | 64 | 1007.3 |
| 20260506050204 | 67 | 144 | 3.0 | 8.0 | 0.00 | 0.00 | 0.00 | 64 | 1007.3 |
| 20260506044707 | 68 | 144 | 4.0 | 8.0 | 0.00 | 0.00 | 0.00 | 62 | 1007.3 |
| 20260506044206 | 68 | 137 | 2.0 | 7.0 | 0.00 | 0.00 | 0.00 | 62 | 1007.4 |
| 20260506043707 | 68 | 144 | 2.0 | 9.0 | 0.00 | 0.00 | 0.00 | 61 | 1007.3 |
| 20260506043206 | 69 | 86 | 3.0 | 9.0 | 0.00 | 0.00 | 0.00 | 61 | 1007.3 |
| 20260506042706 | 69 | 152 | 3.0 | 9.0 | 0.00 | 0.00 | 0.00 | 60 | 1007.3 |
| 20260506042206 | 69 | 168 | 4.0 | 10.0 | 0.00 | 0.00 | 0.00 | 60 | 1007.2 |
| 20260506041708 | 69 | 175 | 3.0 | 10.0 | 0.00 | 0.00 | 0.00 | 59 | 1007.3 |
| 20260506040709 | 69 | 178 | 3.0 | 10.0 | 0.00 | 0.00 | 0.00 | 58 | 1007.1 |
| 20260506040206 | 70 | 144 | 5.0 | 10.0 | 0.00 | 0.00 | 0.00 | 58 | 1007.2 |
| 20260506035707 | 70 | 156 | 3.0 | 12.0 | 0.00 | 0.00 | 0.00 | 58 | 1007.1 |
| 20260506035206 | 70 | 215 | 5.0 | 12.0 | 0.00 | 0.00 | 0.00 | 57 | 1007.1 |
| 20260506034706 | 70 | 180 | 6.0 | 12.0 | 0.00 | 0.00 | 0.00 | 57 | 1007.2 |
| 20260506034206 | 70 | 175 | 5.0 | 12.0 | 0.00 | 0.00 | 0.00 | 57 | 1007.2 |
| 20260506033707 | 70 | 169 | 6.0 | 14.0 | 0.00 | 0.00 | 0.00 | 57 | 1007.2 |
| 20260506033207 | 69 | 10 | 7.0 | 14.0 | 0.00 | 0.00 | 0.00 | 57 | 1007.1 |
| 20260506032706 | 69 | 155 | 6.0 | 12.0 | 0.00 | 0.00 | 0.00 | 57 | 1007.1 |
| 20260506031706 | 69 | 165 | 3.0 | 9.0 | 0.00 | 0.00 | 0.00 | 58 | 1007.0 |
| 20260506031207 | 69 | 157 | 2.0 | 6.0 | 0.00 | 0.00 | 0.00 | 58 | 1006.9 |
| 20260506030706 | 69 | 169 | 4.0 | 7.0 | 0.00 | 0.00 | 0.00 | 58 | 1006.9 |
| 20260506030206 | 69 | 156 | 2.0 | 7.0 | 0.00 | 0.00 | 0.00 | 58 | 1006.8 |
| 20260506025706 | 69 | 139 | 3.0 | 7.0 | 0.00 | 0.00 | 0.00 | 58 | 1006.9 |
| 20260506025207 | 69 | 152 | 3.0 | 9.0 | 0.00 | 0.00 | 0.00 | 58 | 1007.0 |
| 20260506024206 | 69 | 145 | 4.0 | 9.0 | 0.00 | 0.00 | 0.00 | 58 | 1007.1 |
| 20260506023706 | 69 | 127 | 3.0 | 9.0 | 0.00 | 0.00 | 0.00 | 57 | 1007.0 |
| 20260506023207 | 69 | 163 | 5.0 | 9.0 | 0.00 | 0.00 | 0.00 | 57 | 1007.0 |
| 20260506022706 | 69 | 145 | 3.0 | 12.0 | 0.00 | 0.00 | 0.00 | 57 | 1007.1 |
| 20260506022206 | 69 | 146 | 5.0 | 12.0 | 0.00 | 0.00 | 0.00 | 57 | 1007.0 |
| 20260506021706 | 70 | 156 | 3.0 | 12.0 | 0.00 | 0.00 | 0.00 | 57 | 1006.9 |
| 20260506021207 | 70 | 146 | 5.0 | 15.0 | 0.00 | 0.00 | 0.00 | 56 | 1006.9 |
| 20260506020706 | 70 | 175 | 5.0 | 15.0 | 0.00 | 0.00 | 0.00 | 56 | 1007.0 |
| 20260506015707 | 70 | 123 | 5.0 | 14.0 | 0.00 | 0.00 | 0.00 | 56 | 1006.9 |
| 20260506014707 | 70 | 148 | 5.0 | 13.0 | 0.00 | 0.00 | 0.00 | 55 | 1006.8 |
| 20260506014207 | 70 | 142 | 6.0 | 13.0 | 0.00 | 0.00 | 0.00 | 55 | 1006.8 |
| 20260506013706 | 71 | 148 | 4.0 | 12.0 | 0.00 | 0.00 | 0.00 | 54 | 1006.7 |
| 20260506013206 | 71 | 128 | 5.0 | 10.0 | 0.00 | 0.00 | 0.00 | 54 | 1006.7 |
| 20260506012707 | 71 | 145 | 4.0 | 12.0 | 0.00 | 0.00 | 0.00 | 53 | 1006.7 |
| 20260506012206 | 71 | 144 | 5.0 | 12.0 | 0.00 | 0.00 | 0.00 | 53 | 1006.6 |
| 20260506011706 | 71 | 153 | 6.0 | 12.0 | 0.00 | 0.00 | 0.00 | 53 | 1006.5 |
| 20260506011206 | 71 | 145 | 6.0 | 15.0 | 0.00 | 0.00 | 0.00 | 53 | 1006.5 |
| 20260506010706 | 71 | 143 | 6.0 | 15.0 | 0.00 | 0.00 | 0.00 | 52 | 1006.4 |
| 20260506010206 | 71 | 152 | 5.0 | 16.0 | 0.00 | 0.00 | 0.00 | 52 | 1006.3 |
| 20260506005706 | 71 | 119 | 6.0 | 16.0 | 0.00 | 0.00 | 0.00 | 52 | 1006.2 |
| 20260506005206 | 71 | 146 | 6.0 | 17.0 | 0.00 | 0.00 | 0.00 | 52 | 1006.1 |
| 20260506004206 | 72 | 145 | 9.0 | 15.0 | 0.00 | 0.00 | 0.00 | 50 | 1006.1 |